Danville, IN

6:37 PM EST on November 20, 2017 (GMT -0500)
Vermilion County

Weather History for KDNV - September, 2013

Change the Weather History Date:

Sunday, September 22, 2013

  Actual Average (KLAF) Record (KLAF)
Temperature  
Mean Temperature 56 °F -  
Max Temperature 75 °F 73 °F 92 °F (2017)
Min Temperature 38 °F 50 °F 36 °F (1976)
Degree Days  
Heating Degree Days 8    
Growing Degree Days 6 (Base 50)    
Moisture  
Dew Point 43 °F    
Average Humidity 64    
Maximum Humidity 91    
Minimum Humidity 36    
Precipitation  
Precipitation 0.00 in - - ()
Sea Level Pressure  
Sea Level Pressure 29.97 in    
Wind  
Wind Speed 3 mph (NE)    
Max Wind Speed 8 mph    
Max Gust Speed -    
Visibility 8 miles    
Events      
Averages and records for this station are not official NWS values.
T = Trace of Precipitation, MM = Missing Value Source: NWS Daily Summary

Daily Weather History Graph

Daily Weather History Graph

Search for Another Location

Airport or City:

Trip Planner

Search our weather history database for the weather conditions in past years. The results will help you decide how hot, cold, wet, or windy it might be!

Date:

Astronomy

Sep. 22, 2013 Rise Set
Actual Time 6:38 AM CDT 6:47 PM CDT
Civil Twilight 6:11 AM CDT 7:14 PM CDT
Nautical Twilight 5:39 AM CDT 7:45 PM CDT
Astronomical Twilight 5:07 AM CDT 8:18 PM CDT
Moon 8:36 PM CDT (9/22) 9:58 AM CDT (9/22)
Length of Visible Light 13h 03m
Length of Day
12h 08m
Waning Gibbous, 88% of the Moon is Illuminated
Sep 22
Waning Gibbous
Sep 26
Last Quarter
Oct 4
New
Oct 11
First Quarter
Oct 18
Full

Hourly Weather History & Observations

Time (CDT) Temp. Windchill Dew Point Humidity Pressure Visibility Wind Dir Wind Speed Gust Speed Precip Events Conditions
12:15 AM 46.8 °F - 40.3 °F 78% 29.93 in 10.0 mi NNE 4.6 mph - N/A   Clear
12:35 AM 46.0 °F 44.8 °F 41.2 °F 83% 29.93 in 10.0 mi North 3.5 mph - N/A   Clear
12:55 AM 45.7 °F 43.4 °F 41.5 °F 85% 29.93 in 10.0 mi NNE 4.6 mph - N/A   Clear
1:15 AM 45.0 °F 43.5 °F 41.0 °F 86% 29.93 in 10.0 mi NNE 3.5 mph - N/A   Clear
1:35 AM 44.2 °F 42.7 °F 40.3 °F 86% 29.94 in 10.0 mi North 3.5 mph - N/A   Clear
1:55 AM 44.2 °F - 40.5 °F 87% 29.94 in 10.0 mi Calm Calm - N/A   Clear
2:15 AM 43.7 °F - 40.1 °F 87% 29.94 in 7.0 mi Calm Calm - N/A   Clear
2:35 AM 43.5 °F - 39.9 °F 87% 29.94 in 10.0 mi Calm Calm - N/A   Clear
2:55 AM 42.1 °F - 38.3 °F 86% 29.94 in 10.0 mi Calm Calm - N/A   Clear
3:15 AM 41.9 °F - 38.3 °F 87% 29.94 in 10.0 mi Calm Calm - N/A   Clear
3:35 AM 41.2 °F - 37.6 °F 87% 29.94 in 7.0 mi Calm Calm - N/A   Clear
3:55 AM 40.3 °F - 36.7 °F 87% 29.94 in 10.0 mi Calm Calm - N/A   Clear
4:15 AM 39.7 °F - 36.5 °F 88% 29.94 in 4.0 mi Calm Calm - N/A   Clear
4:35 AM 40.5 °F - 37.0 °F 88% 29.95 in 7.0 mi Calm Calm - N/A   Clear
4:55 AM 40.6 °F - 37.6 °F 89% 29.95 in 7.0 mi Calm Calm - N/A   Clear
5:15 AM 40.6 °F - 37.4 °F 88% 29.95 in 7.0 mi Calm Calm - N/A   Clear
5:35 AM 40.3 °F 38.2 °F 37.4 °F 89% 29.96 in 10.0 mi North 3.5 mph - N/A   Clear
5:55 AM 40.8 °F - 37.4 °F 88% 29.96 in 7.0 mi Calm Calm - N/A   Clear
6:15 AM 40.1 °F - 36.9 °F 88% 29.97 in 7.0 mi Calm Calm - N/A   Clear
6:35 AM 39.2 °F - 36.0 °F 88% 29.97 in 5.0 mi Calm Calm - N/A   Clear
6:55 AM 38.8 °F - 36.0 °F 89% 29.98 in 3.0 mi Calm Calm - N/A   Clear
7:15 AM 40.5 °F - 37.9 °F 91% 29.98 in 5.0 mi Calm Calm - N/A   Clear
7:35 AM 43.5 °F - 40.8 °F 90% 29.98 in 7.0 mi Calm Calm - N/A   Clear
7:55 AM 47.7 °F - 44.8 °F 90% 29.99 in 10.0 mi Calm Calm - N/A   Clear
8:15 AM 49.3 °F - 46.6 °F 90% 30.00 in 10.0 mi Calm Calm - N/A   Clear
8:35 AM 52.0 °F - 48.4 °F 88% 30.00 in 10.0 mi Calm Calm - N/A   Clear
8:55 AM 53.6 °F - 48.9 °F 84% 30.00 in 10.0 mi NNE 3.5 mph - N/A   Clear
9:15 AM 56.7 °F - 49.8 °F 78% 30.01 in 10.0 mi North 3.5 mph - N/A   Clear
9:35 AM 59.7 °F - 50.2 °F 71% 30.01 in 10.0 mi North 3.5 mph - N/A   Clear
9:55 AM 61.7 °F - 49.5 °F 64% 30.01 in 10.0 mi North 4.6 mph - N/A   Clear
10:15 AM 64.2 °F - 51.6 °F 64% 30.01 in 10.0 mi ENE 3.5 mph - N/A   Clear
10:35 AM 65.7 °F - 49.5 °F 56% 30.01 in 10.0 mi Calm Calm - N/A   Scattered Clouds
10:55 AM 66.0 °F - 48.6 °F 53% 30.02 in 10.0 mi NNE 3.5 mph - N/A   Clear
11:15 AM 69.4 °F - 52.7 °F 55% 30.01 in 10.0 mi NNE 3.5 mph - N/A   Scattered Clouds
11:35 AM 70.5 °F - 50.2 °F 48% 30.01 in 7.0 mi NNE 3.5 mph - N/A   Scattered Clouds
11:55 AM 69.1 °F - 49.6 °F 50% 30.00 in 7.0 mi North 5.8 mph - N/A   Scattered Clouds
12:15 PM 71.2 °F - 54.1 °F 55% 30.00 in 7.0 mi East 4.6 mph - N/A   Scattered Clouds
12:35 PM 73.4 °F - 54.5 °F 51% 30.00 in 7.0 mi NNE 4.6 mph - N/A   Scattered Clouds
12:55 PM 74.3 °F - 51.1 °F 44% 29.99 in 10.0 mi Calm Calm - N/A   Scattered Clouds
1:15 PM 72.9 °F - 47.8 °F 41% 29.98 in 7.0 mi NNE 8.1 mph - N/A   Scattered Clouds
1:35 PM 73.4 °F - 50.0 °F 44% 29.97 in 7.0 mi NNE 4.6 mph - N/A   Clear
1:55 PM 74.7 °F - 50.0 °F 42% 29.96 in 7.0 mi Calm Calm - N/A   Clear
2:15 PM 73.9 °F - 50.2 °F 43% 29.96 in 5.0 mi East 4.6 mph - N/A   Haze
2:35 PM 75.2 °F - 51.1 °F 43% 29.95 in 7.0 mi East 8.1 mph - N/A   Clear
2:55 PM 74.8 °F - 48.2 °F 39% 29.95 in 5.0 mi Calm Calm - N/A   Haze
3:15 PM 74.8 °F - 48.2 °F 39% 29.95 in 5.0 mi Calm Calm - N/A   Haze
3:35 PM 75.0 °F - 48.2 °F 39% 29.95 in 7.0 mi NNE 4.6 mph - N/A   Clear
3:55 PM 75.2 °F - 47.7 °F 38% 29.95 in 7.0 mi East 4.6 mph - N/A   Clear
4:15 PM 75.2 °F - 47.7 °F 38% 29.94 in 7.0 mi East 4.6 mph - N/A   Clear
4:35 PM 74.7 °F - 46.6 °F 37% 29.94 in 7.0 mi Calm Calm - N/A   Clear
4:55 PM 73.9 °F - 45.9 °F 37% 29.95 in 7.0 mi NE 5.8 mph - N/A   Clear
5:15 PM 73.6 °F - 45.3 °F 36% 29.95 in 7.0 mi East 5.8 mph - N/A   Clear
5:35 PM 72.1 °F - 43.7 °F 36% 29.95 in 7.0 mi ENE 5.8 mph - N/A   Clear
5:55 PM 70.7 °F - 43.2 °F 37% 29.95 in 7.0 mi ENE 4.6 mph - N/A   Clear
6:15 PM 69.1 °F - 41.7 °F 37% 29.95 in 7.0 mi ENE 4.6 mph - N/A   Clear
6:35 PM 64.9 °F - 37.9 °F 37% 29.95 in 5.0 mi ENE 4.6 mph - N/A   Haze
6:55 PM 60.4 °F - 35.8 °F 40% 29.95 in 7.0 mi NE 4.6 mph - N/A   Clear
7:15 PM 58.3 °F - 35.1 °F 42% 29.96 in 7.0 mi ENE 4.6 mph - N/A   Clear
7:35 PM 56.5 °F - 34.2 °F 43% 29.96 in 7.0 mi ENE 4.6 mph - N/A   Clear
7:55 PM 55.4 °F - 34.2 °F 45% 29.97 in 7.0 mi ENE 4.6 mph - N/A   Clear
8:15 PM 54.0 °F - 33.6 °F 46% 29.98 in 7.0 mi ENE 3.5 mph - N/A   Clear
8:35 PM 52.9 °F - 33.4 °F 48% 29.98 in 10.0 mi ENE 3.5 mph - N/A   Clear
8:55 PM 51.8 °F - 33.1 °F 49% 29.98 in 10.0 mi ENE 4.6 mph - N/A   Clear
9:15 PM 52.5 °F - 36.0 °F 53% 29.99 in 10.0 mi NE 8.1 mph - N/A   Clear
9:35 PM 52.2 °F - 38.5 °F 60% 29.99 in 10.0 mi ENE 6.9 mph - N/A   Clear
9:55 PM 51.1 °F - 39.4 °F 64% 29.99 in 10.0 mi ENE 6.9 mph - N/A   Clear
10:15 PM 50.9 °F - 40.6 °F 68% 30.00 in 10.0 mi ENE 6.9 mph - N/A   Clear
10:35 PM 50.2 °F - 41.2 °F 71% 30.00 in 10.0 mi ENE 6.9 mph - N/A   Clear
10:55 PM 49.5 °F - 41.0 °F 73% 30.00 in 10.0 mi ENE 5.8 mph - N/A   Clear
11:15 PM 49.1 °F - 41.0 °F 74% 30.01 in 10.0 mi ENE 6.9 mph - N/A   Clear
11:35 PM 48.4 °F - 40.6 °F 75% 30.01 in 10.0 mi ENE 5.8 mph - N/A   Clear
11:55 PM 47.7 °F - 40.3 °F 76% 30.02 in 10.0 mi ENE 5.8 mph - N/A   Clear